OBJECT B

Satellite information

Favourite Embed

Satellite Type and Status

UNKNOWNIN ORBIT

Key statistics

Satellite OBJECT B at a glance.

Uptime

162

Days in orbit

Revolutions

≈ 15.2

Per day

Orbit

SSO

Sun Synchronous Orbit

Inclination

97.4

Latest

Satellite identification and parameters

Extended collection of information and parameters for OBJECT B.

Object identification

Identified? True

Debris? False

Object name: OBJECT B

International designator: 2025-100B

Object number (NORAD): 63983

Object ID (CCSDS): 63983

Country: PEOPLES REPUBLIC OF CHINA (PRC)

Current information (Y/N): Y

RCS size: MEDIUM

Orbital parameters

Period: 94.433 minutes

Inclination: 97.3933 deg

SMA: 6869.251 km

Apoapsis: 499.861 km

Periapsis: 482.371 km

RAAN: 7.8487 deg

Eccentricy: 0.0012731

Argument of periapsis: 67.3551 deg

Mean anomaly: 292.9032 deg

Mean motion: 15.24890667 rev/day

Mean motion (dot): 0.00029254 rev/day2

B* drag term: 0.0011729 1/REarth

Two-line elements (TLE)

Creation date: Oct. 22, 2025, 12:16 a.m.

Reference frame: TEME

Reference center: EARTH

Epoch: Oct. 21, 2025, 6:35 p.m. UTC

TLE line 0: 0 OBJECT B

TLE line 1: 1 63983U 25100B 25294.77490896 .00029254 00000-0 11729-2 0 9993

TLE line 2: 2 63983 97.3933 7.8487 0012731 67.3551 292.9032 15.24890667 24416

Live tracking on map

Real-time ground track for satellite OBJECT B.

In-orbit conjunctions

There are no conjunctions computed for OBJECT B, at the moment. Check back to stay up to date, as we update our databases every day.

Go to all conjunctions

Associated space launch

12 satellites from ADASPACE testing in-orbit data processing capabilities for other satellites with artificial intelligence assistance, as well as inter-satellite laser link communication techniques.

OBJECT B was lifted into orbit during the mission ‘Long March 2D | Space Computing Constellation’, on board a Long March 2D space rocket.

The launch took place on May 14, 2025, 4:12 a.m. from Launch Area 4 (SLS-2 / 603).

For more information about the launch, click the button.

Launch to space Long March 2D | Space Computing Constellation
Long March 2D | Space Computing Constellation

Agency: N/A

Status: Launch Successful

Launch date: May 14, 2025, 4:12 a.m. UTC

Rocket: Long March 2D

Launch pad: Launch Area 4 (SLS-2 / 603)

Location: Jiuquan Satellite Launch Center, People's Republic of China

...

Latest news about this satellite

News about space launch
Rocket Report: How is your payload fairing? Poland launches test rocket.

No thunder down under.

News about space launch
China launches first of 2,800 satellites for AI space computing constellation

China launched 12 satellites early Wednesday for a pioneering on-orbit computing project led by startup ADA Space and Zhejiang Lab. The post China launches first of 2,800 satellites for AI space computing constellation appeared first on SpaceNews.

News about space launch
Launch Roundup: Orbital launches from five countries planned

On the heels of a busy April, activity is ramping up for May with launches… The post Launch Roundup: Orbital launches from five countries planned appeared first on NASASpaceFlight.com.


Newsletter sign-up

Weekly statistics, charts and insights to help you stay on top of the space industry.